• In Österreich
  • Länderverzeichnis
  • Für 7 Tage
  • Wassertemperatur
  • Satellitenkarten
  • Wetterkarte
  • News
  • Widgets
  • user-avatar
    Anmelden

    Stündliche Wetter Cagua

    Heute, 24 Mai, Donnerstag

    Zeit Temperatur Niederschläge Wind Luftdruck Luftfeuchtigkeit
    00:00 +25°C° 0 mm 2 m/S 720 mmHg 85%
    01:00 +24°C° 0 mm 2 m/S 720 mmHg 86%
    02:00 +24°C° 0 mm 2 m/S 720 mmHg 87%
    03:00 +24°C° 0 mm 2 m/S 720 mmHg 87%
    04:00 +24°C° 0 mm 1 m/S 719 mmHg 87%
    05:00 +24°C° 0 mm 1 m/S 719 mmHg 88%
    06:00 +25°C° 0 mm 1 m/S 720 mmHg 83%
    07:00 +26°C° 0 mm 1 m/S 720 mmHg 79%
    08:00 +27°C° 0 mm 1 m/S 721 mmHg 75%
    09:00 +28°C° 0 mm 2 m/S 721 mmHg 69%
    10:00 +30°C° 0 mm 2 m/S 721 mmHg 62%
    11:00 +32°C° 0 mm 2 m/S 721 mmHg 56%
    12:00 +32°C° 0,3 mm 2 m/S 721 mmHg 56%
    13:00 +33°C° 0,3 mm 3 m/S 720 mmHg 56%
    14:00 +33°C° 0,3 mm 3 m/S 720 mmHg 56%
    15:00 +33°C° 0,4 mm 3 m/S 719 mmHg 58%
    16:00 +32°C° 0,4 mm 2 m/S 718 mmHg 59%
    17:00 +31°C° 0,4 mm 2 m/S 718 mmHg 61%
    18:00 +30°C° 0,1 mm 2 m/S 718 mmHg 66%
    19:00 +28°C° 0,1 mm 2 m/S 718 mmHg 72%
    20:00 +27°C° 0,1 mm 1 m/S 719 mmHg 77%
    21:00 +26°C° 0,1 mm 1 m/S 719 mmHg 79%
    22:00 +26°C° 0,1 mm 1 m/S 719 mmHg 81%
    23:00 +25°C° 0,1 mm 1 m/S 719 mmHg 83%

    Morgen, 25 Mai, Freitag

    Zeit Temperatur Niederschläge Wind Luftdruck Luftfeuchtigkeit
    00:00 +25°C° 0 mm 1 m/S 719 mmHg 83%
    01:00 +25°C° 0 mm 1 m/S 719 mmHg 84%
    02:00 +25°C° 0 mm 1 m/S 719 mmHg 84%
    03:00 +25°C° 0,1 mm 1 m/S 719 mmHg 85%
    04:00 +24°C° 0,1 mm 1 m/S 719 mmHg 85%
    05:00 +24°C° 0,1 mm 1 m/S 719 mmHg 85%
    06:00 +25°C° 0 mm 1 m/S 719 mmHg 83%
    07:00 +25°C° 0 mm 1 m/S 720 mmHg 82%
    08:00 +26°C° 0 mm 1 m/S 720 mmHg 80%
    09:00 +27°C° 0 mm 2 m/S 720 mmHg 76%
    10:00 +28°C° 0 mm 2 m/S 720 mmHg 73%
    11:00 +29°C° 0 mm 2 m/S 720 mmHg 69%
    12:00 +29°C° 0,1 mm 2 m/S 720 mmHg 67%
    13:00 +30°C° 0,1 mm 2 m/S 719 mmHg 65%
    14:00 +30°C° 0,1 mm 2 m/S 719 mmHg 62%
    15:00 +30°C° 0,1 mm 2 m/S 718 mmHg 65%
    16:00 +29°C° 0,1 mm 2 m/S 718 mmHg 67%
    17:00 +29°C° 0,1 mm 2 m/S 717 mmHg 70%
    18:00 +28°C° 0 mm 1 m/S 718 mmHg 75%
    19:00 +27°C° 0 mm 1 m/S 718 mmHg 80%
    20:00 +26°C° 0 mm 1 m/S 718 mmHg 86%
    21:00 +25°C° 0 mm 1 m/S 719 mmHg 86%
    22:00 +25°C° 0 mm 1 m/S 719 mmHg 87%
    23:00 +25°C° 0 mm 1 m/S 719 mmHg 87%

    übermorgen, 26 Mai, Samstag

    Zeit Temperatur Niederschläge Wind Luftdruck Luftfeuchtigkeit
    00:00 +25°C° 0 mm 1 m/S 719 mmHg 87%
    01:00 +24°C° 0 mm 1 m/S 719 mmHg 87%
    02:00 +24°C° 0 mm 1 m/S 718 mmHg 87%
    03:00 +24°C° 0 mm 1 m/S 718 mmHg 87%
    04:00 +24°C° 0 mm 1 m/S 718 mmHg 87%
    05:00 +24°C° 0 mm 1 m/S 718 mmHg 86%
    06:00 +25°C° 0 mm 1 m/S 719 mmHg 84%
    07:00 +25°C° 0 mm 1 m/S 719 mmHg 82%
    08:00 +26°C° 0 mm 1 m/S 719 mmHg 80%
    09:00 +27°C° 0 mm 1 m/S 720 mmHg 74%
    10:00 +29°C° 0 mm 1 m/S 720 mmHg 69%
    11:00 +30°C° 0 mm 2 m/S 720 mmHg 63%
    12:00 +31°C° 0 mm 2 m/S 719 mmHg 61%
    13:00 +31°C° 0 mm 2 m/S 719 mmHg 58%
    14:00 +32°C° 0 mm 2 m/S 718 mmHg 56%
    15:00 +31°C° 0 mm 2 m/S 718 mmHg 57%
    16:00 +31°C° 0 mm 2 m/S 717 mmHg 59%
    17:00 +31°C° 0 mm 2 m/S 717 mmHg 60%
    18:00 +29°C° 0 mm 2 m/S 717 mmHg 66%
    19:00 +28°C° 0 mm 1 m/S 718 mmHg 73%
    20:00 +26°C° 0 mm 1 m/S 718 mmHg 79%
    21:00 +26°C° 0 mm 1 m/S 718 mmHg 81%
    22:00 +25°C° 0 mm 1 m/S 718 mmHg 82%
    23:00 +25°C° 0 mm 1 m/S 719 mmHg 83%

    27 Mai, Sonntag

    Zeit Temperatur Niederschläge Wind Luftdruck Luftfeuchtigkeit
    00:00 +25°C° 0 mm 1 m/S 718 mmHg 83%
    01:00 +25°C° 0 mm 1 m/S 718 mmHg 83%
    02:00 +24°C° 0 mm 1 m/S 718 mmHg 83%
    03:00 +24°C° 0 mm 1 m/S 718 mmHg 83%
    04:00 +24°C° 0 mm 1 m/S 718 mmHg 83%
    05:00 +24°C° 0 mm 1 m/S 718 mmHg 84%
    06:00 +25°C° 0 mm 2 m/S 719 mmHg 81%
    07:00 +25°C° 0 mm 2 m/S 719 mmHg 79%
    08:00 +26°C° 0 mm 2 m/S 720 mmHg 76%
    09:00 +27°C° 0 mm 2 m/S 720 mmHg 72%
    10:00 +29°C° 0 mm 2 m/S 720 mmHg 69%
    11:00 +30°C° 0 mm 2 m/S 720 mmHg 65%
    12:00 +30°C° 0,4 mm 2 m/S 719 mmHg 65%
    13:00 +30°C° 0,4 mm 3 m/S 719 mmHg 65%
    14:00 +31°C° 0,4 mm 3 m/S 718 mmHg 65%
    15:00 +30°C° 1 mm 2 m/S 718 mmHg 66%
    16:00 +30°C° 1 mm 2 m/S 717 mmHg 67%
    17:00 +30°C° 1 mm 2 m/S 717 mmHg 69%
    18:00 +29°C° 0,2 mm 2 m/S 718 mmHg 73%
    19:00 +27°C° 0,2 mm 2 m/S 718 mmHg 77%
    20:00 +26°C° 0,2 mm 2 m/S 718 mmHg 82%
    21:00 +26°C° 0 mm 2 m/S 719 mmHg 83%
    22:00 +25°C° 0 mm 2 m/S 719 mmHg 85%
    23:00 +25°C° 0 mm 2 m/S 719 mmHg 87%

    28 Mai, Montag

    Zeit Temperatur Niederschläge Wind Luftdruck Luftfeuchtigkeit
    00:00 +25°C° 0 mm 2 m/S 719 mmHg 87%
    01:00 +25°C° 0 mm 2 m/S 719 mmHg 88%
    02:00 +24°C° 0 mm 1 m/S 718 mmHg 88%
    03:00 +24°C° 0 mm 1 m/S 718 mmHg 88%
    04:00 +24°C° 0 mm 1 m/S 718 mmHg 88%
    05:00 +24°C° 0 mm 1 m/S 719 mmHg 88%
    06:00 +24°C° 0 mm 2 m/S 719 mmHg 85%
    07:00 +25°C° 0 mm 2 m/S 720 mmHg 82%
    08:00 +26°C° 0 mm 2 m/S 721 mmHg 78%
    09:00 +27°C° 0 mm 3 m/S 721 mmHg 72%
    10:00 +28°C° 0 mm 3 m/S 721 mmHg 66%
    11:00 +30°C° 0 mm 3 m/S 721 mmHg 59%
    12:00 +31°C° 0 mm 3 m/S 720 mmHg 55%
    13:00 +33°C° 0 mm 3 m/S 720 mmHg 52%
    14:00 +34°C° 0 mm 3 m/S 719 mmHg 48%
    15:00 +33°C° 0 mm 3 m/S 719 mmHg 50%
    16:00 +33°C° 0 mm 3 m/S 718 mmHg 53%
    17:00 +31°C° 0 mm 3 m/S 718 mmHg 55%
    18:00 +30°C° 0 mm 2 m/S 718 mmHg 62%
    19:00 +28°C° 0 mm 2 m/S 719 mmHg 69%
    20:00 +26°C° 0 mm 1 m/S 719 mmHg 75%
    21:00 +26°C° 0 mm 1 m/S 719 mmHg 78%
    22:00 +25°C° 0 mm 1 m/S 720 mmHg 81%
    23:00 +25°C° 0 mm 1 m/S 720 mmHg 84%

    29 Mai, Dienstag

    Zeit Temperatur Niederschläge Wind Luftdruck Luftfeuchtigkeit
    00:00 +24°C° 0 mm 1 m/S 719 mmHg 85%
    01:00 +24°C° 0 mm 1 m/S 719 mmHg 85%
    02:00 +24°C° 0 mm 1 m/S 719 mmHg 85%
    03:00 +24°C° 0 mm 1 m/S 719 mmHg 84%
    04:00 +24°C° 0 mm 1 m/S 719 mmHg 83%
    05:00 +24°C° 0 mm 1 m/S 719 mmHg 82%
    06:00 +25°C° 0 mm 1 m/S 719 mmHg 79%
    07:00 +26°C° 0 mm 1 m/S 720 mmHg 77%
    08:00 +26°C° 0 mm 2 m/S 720 mmHg 74%
    09:00 +28°C° 0 mm 2 m/S 720 mmHg 67%
    10:00 +30°C° 0 mm 2 m/S 721 mmHg 61%
    11:00 +31°C° 0 mm 3 m/S 721 mmHg 55%
    12:00 +31°C° 0,2 mm 3 m/S 720 mmHg 55%
    13:00 +33°C° 0,2 mm 3 m/S 719 mmHg 56%
    14:00 +33°C° 0,2 mm 3 m/S 719 mmHg 56%
    15:00 +31°C° 1 mm 3 m/S 718 mmHg 61%
    16:00 +30°C° 1 mm 2 m/S 718 mmHg 65%
    17:00 +29°C° 1 mm 2 m/S 718 mmHg 69%
    18:00 +28°C° 0,4 mm 2 m/S 718 mmHg 74%
    19:00 +27°C° 0,4 mm 2 m/S 718 mmHg 78%
    20:00 +26°C° 0,4 mm 1 m/S 719 mmHg 83%
    21:00 +25°C° 0 mm 1 m/S 719 mmHg 84%
    22:00 +25°C° 0 mm 1 m/S 719 mmHg 85%
    23:00 +24°C° 0 mm 1 m/S 720 mmHg 87%
    Mehr zeigen